SCP
0 0 0 0 0 0 0 0 0 0 0 0 0 0 0 0 0 0 0 0 0 0 0 0 0 0 0 0 0 0 0 0 0 0 0 0 0 0
0 0 0 0 0 0 0 0 0 0 0 0 0 0 0 0 0 0 0 0 0 0 0 0 0 0 0 0 0 0 0 0 0 0 0 0 0 0
0 0 0 0 0 0 0 0 0 0 0 0 0 0 0 0 0 0 0 0 0 0 0 0 0 0 0 0 0 0 0 0 0 0 0 0 0 0
0 0 0 0 0 0 0 0 0 0 0 0 0 0 0 0 0 0 0 0 0 0 0 0 0 0 0 0 0 0 0 0 0 0 0 0 0 0
0 0 0 0 0 0 0 0 0 0 0 0 0 0 0 0 0 0 0 0 0 0 0 0 0 0 0 0 0 0 0 0 0 0 0 0 0 0
0 0 0 0 0 0 0 0 0 0 0 0 0 0 0 0 0 0 0 0 0 0 0 0 0 0 0 0 0 0 0 0 0 0 0 0 0 0
0 0 0 0 0 0 0 0 0 0 0 0 0 0 0 0 0 0 0 0 0 0 0 0 0 0 0 0 0 0 0 0 0 0 0 0 0 0
0 0 0 0 0 0 0 0 0 0 0 0 0 0 0 0 0 0 0 0 0 0 0 0 0 0 0 0 0 0 0 0 0 0 0 0 0 0
0 0 0 0 0 0 0 0 0 0 0 0 0 0 0 0 0 0 0 0 0 0 0 0 0 0 0 0 0 0 0 0 0 0 0 0 0 0
0 0 0 0 0 0 0 0 0 0 0 0 0 0 0 0 0 0 0 0 0 0 0 0 0 0 0 0 0 0 0 0 0 0 0 0 0 0
0 0 0 0 0 0 0 0 0 0 0 0 0 0 0 0 0 0 0 0 0 0 0 0 0 0 0 0 0 0 0 0 0 0 0 0 0 0
0 0 0 0 0 0 0 0 0 0 0 0 0 0 0 0 0 0 0 0 0 0 0 0 0 0 0 0 0 0 0 0 0 0 0 0 0 0
0 0 0 0 0 0 0 0 0 0 0 0 0 0 0 0 0 0 0 0 0 0 0 0 0 0 0 0 0 0 0 0 0 0 0 0 0 0
0 0 0 0 0 0 0 0 0 0 0 0 0 0 0 0 0 0 0 0 0 0 0 0 0 0 0 0 0 0 0 0 0 0 0 0 0 0
0 0 0 0 0 0 0 0 0 0 0 0 0 0 0 0 0 0 0 0 0 0 0 0 0 0 0 0 0 0 0 0 0 0 0 0 0 0
0 0 0 0 0 0 0 0 0 0 0 0 0 0 0 0 0 0 0 0 0 0 0 0 0 0 0 0 0 0 0 0 0 0 0 0 0 0
0 0 0 0 0 0 0 0 0 0 0 0 0 0 0 0 0 0 0 0 0 0 0 0 0 0 0 0 0 0 0 0 0 0 0 0 0 0
0 0 0 0 0 0 0 0 0 0 0 0 0 0 0 0 0 0 0 0 0 0 0 0 0 0 0 0 0 0 0 0 0 0 0 0 0 0
0 0 0 0 0 0 0 0 0 0 0 0 0 0 0 0 0 0 0 0 0 0 0 0 0 0 0 0 0 0 0 0 0 0 0 0 0 0
0 0 0 0 0 0 0 0 0 0 0 0 0 0 0 0 0 0 0 0 0 0 0 0 0 0 0 0 0 0 0 0 0 0 0 0 0 0
0 0 0 0 0 0 0 0 0 0 0 0 0 0 0 0 0 0 0 0 0 0 0 0 0 0 0 0 0 0 0 0 0 0 0 0 0 0
0 0 0 0 0 0 0 0 0 0 0 0 0 0 0 0 0 0 0 0 0 0 0 0 0 0 0 0 0 0 0 0 0 0 0 0 0 0
0 0 0 0 0 0 0 0 0 0 0 0 0 0 0 0 0 0 0 0 0 0 0 0 0 0 0 0 0 0 0 0 0 0 0 0 0 0
Wind_Speed
3 3 2 2 2 1 2 2 3 2 3 2 1 1 2 1 4 3 2 6 8 8 8 8 8 8 8 9 8 8 8 8 8 9 10 10 10 11
2 3 2 1 2 2 2 1 2 2 3 2 2 2 2 2 4 3 3 7 8 8 8 8 8 8 8 9 8 8 9 9 9 9 10 11 11 11
3 3 2 2 2 2 2 1 1 1 2 2 1 1 2 2 3 2 3 3 4 8 9 9 9 9 9 9 9 9 9 9 9 10 11 11 11 12
3 3 3 2 2 2 2 2 2 2 2 3 2 2 2 3 3 3 3 3 3 7 9 9 9 9 10 10 9 9 9 10 10 10 11 12 12 13
4 4 4 3 3 2 2 2 2 1 1 2 3 2 2 2 2 3 3 3 4 6 8 8 9 10 11 10 10 9 9 10 10 10 10 11 12 13
3 4 4 4 4 4 3 3 2 2 1 2 2 2 2 2 2 3 3 3 4 4 5 7 9 10 11 11 10 10 10 10 11 11 11 11 11 12
3 3 3 4 5 4 3 3 3 2 2 2 3 2 2 2 3 2 4 4 4 3 3 4 4 4 5 8 9 10 11 11 11 11 11 11 11 12
3 3 2 3 4 5 5 5 5 4 4 3 3 4 4 4 3 3 3 3 4 2 2 4 3 4 4 4 9 12 11 11 11 11 11 11 12 12
4 3 2 3 3 2 3 5 5 7 7 5 5 6 5 4 4 4 4 4 5 3 2 5 3 4 4 6 12 12 12 11 11 11 11 12 12 13
3 4 4 3 3 3 2 2 3 3 5 4 5 6 5 5 5 5 5 4 4 3 3 4 4 4 5 5 11 12 11 11 11 11 12 12 13 13
2 3 4 4 5 4 3 3 3 3 4 6 7 7 9 9 6 2 2 3 5 4 2 3 3 4 4 4 6 10 10 11 11 11 12 13 13 12
2 2 4 4 5 5 3 3 4 4 3 3 4 5 5 5 7 4 4 4 4 4 2 2 2 2 4 3 3 3 5 8 10 11 12 11 11 6
2 2 3 5 5 6 5 3 6 5 2 2 3 3 2 3 3 3 3 4 4 5 3 2 2 2 3 5 4 3 3 3 4 6 8 10 11 8
3 2 3 5 6 6 4 5 6 4 1 2 2 3 3 3 3 3 4 4 5 6 5 4 3 3 4 6 5 3 3 3 3 4 4 7 9 11
2 3 4 5 4 3 4 5 4 2 2 2 3 4 3 3 3 3 3 3 4 5 5 5 5 4 4 5 5 4 5 4 3 3 4 4 4 4
1 2 3 3 3 3 3 3 2 3 3 3 3 3 3 3 3 3 3 2 3 4 3 4 5 5 5 5 6 6 5 4 4 4 4 5 5 4
1 0 0 1 1 1 1 2 2 2 2 2 3 3 3 3 3 2 2 2 3 4 4 3 3 4 5 5 6 6 6 5 5 4 4 6 5 5
1 1 2 2 2 3 3 3 2 3 3 3 3 3 3 3 3 3 3 3 4 4 4 3 3 3 2 4 7 6 5 5 4 4 4 6 7 5
1 2 3 3 3 3 3 3 3 3 2 3 3 3 3 3 3 3 3 3 4 4 4 3 2 2 5 6 4 5 5 5 4 4 4 5 7 7
2 2 3 3 3 3 3 3 3 2 2 3 3 3 3 3 4 4 4 4 4 4 4 3 3 4 5 5 5 4 6 5 4 5 5 5 6 8
2 2 3 3 3 3 3 3 3 3 3 3 3 4 4 4 4 4 4 6 5 4 5 5 4 5 3 2 4 4 4 5 6 5 5 5 5 5
2 3 3 3 3 3 3 3 3 3 4 4 4 4 4 4 4 5 5 4 4 4 5 4 3 2 2 3 5 5 5 4 5 8 9 8 4 4
3 3 3 3 3 3 3 3 4 4 4 4 4 4 4 4 4 4 5 4 4 4 4 4 3 2 3 3 4 5 6 5 3 4 4 7 10 12
Wind_Direction
150 148 146 156 147 147 145 154 160 213 249 238 252 292 295 293 308 315 311 318 319 319 320 320 319 316 315 315 310 308 308 305 301 300 299 297 296 296
147 145 145 150 149 147 155 166 172 185 234 231 237 265 284 290 307 315 305 317 317 317 318 315 311 309 309 309 307 305 303 299 295 295 295 294 294 295
156 162 172 163 161 158 154 162 178 177 237 271 262 277 272 279 301 299 297 297 301 314 314 310 308 308 308 306 301 301 301 298 293 293 293 293 292 293
177 171 180 167 167 169 170 183 197 200 209 264 276 267 263 271 281 290 298 300 293 305 306 306 305 305 306 303 301 299 299 295 292 291 291 291 291 290
184 183 187 172 184 186 184 191 200 213 205 242 275 275 278 285 291 290 288 289 293 298 301 301 301 301 301 299 301 300 296 292 287 286 287 289 290 290
190 190 191 188 193 191 198 199 192 191 200 232 267 280 278 281 274 284 298 293 293 298 293 297 298 300 300 299 300 297 290 286 283 283 286 288 289 289
191 194 199 208 212 208 207 200 190 195 208 234 259 274 273 273 265 264 280 294 289 273 282 290 291 288 294 293 295 291 286 282 282 282 284 286 288 290
192 199 207 214 221 231 239 235 221 211 216 227 248 253 263 257 260 263 273 289 291 265 268 283 272 277 280 279 291 293 286 283 282 282 283 285 287 289
193 194 211 220 233 212 238 249 247 246 240 234 241 249 255 249 249 263 258 261 267 269 270 278 269 271 277 286 295 294 289 284 285 286 286 288 289 289
201 200 203 211 214 209 207 229 244 250 250 243 237 251 253 248 239 243 250 266 272 264 228 266 275 274 286 286 288 288 292 292 291 289 289 291 291 289
213 207 206 207 222 229 210 219 255 267 274 263 261 267 268 268 260 245 246 266 279 271 220 240 272 289 287 280 284 288 293 297 295 292 293 294 293 294
207 215 229 228 235 239 219 210 242 259 256 276 280 283 278 269 264 241 226 247 268 271 227 220 264 296 296 275 278 290 291 295 297 300 301 298 298 299
208 219 222 238 248 251 251 229 243 263 249 249 265 272 275 267 261 248 233 232 246 255 229 212 254 260 266 290 291 282 277 285 293 296 299 298 299 298
216 224 228 247 255 261 262 255 268 281 247 255 267 269 269 267 266 259 253 250 248 250 241 224 242 249 269 283 286 288 286 278 278 281 279 291 297 296
228 245 256 260 266 260 255 268 277 251 236 254 260 265 263 261 267 275 273 267 270 264 253 239 236 246 252 267 278 283 295 287 261 268 276 280 280 286
254 246 257 262 269 270 275 271 251 233 241 248 259 266 267 265 263 260 267 277 280 281 264 246 238 235 252 262 267 277 274 271 280 282 284 283 278 269
241 208 221 243 241 255 265 262 250 246 258 258 260 268 271 269 269 262 255 262 262 274 284 274 254 246 245 252 265 265 270 273 269 280 288 289 281 271
257 221 234 235 241 246 251 260 257 251 252 258 261 261 266 268 272 268 256 254 264 270 274 277 286 302 291 263 235 253 261 266 275 279 278 286 288 281
239 229 236 238 243 243 244 249 255 255 248 250 257 263 267 270 271 266 260 260 265 269 270 266 263 268 288 293 276 229 253 275 282 281 273 272 280 285
240 238 243 245 247 247 249 255 258 257 254 256 259 260 260 264 265 262 258 257 268 274 274 263 250 246 257 274 283 281 263 263 269 279 284 283 277 280
266 259 256 253 253 254 255 255 254 256 260 260 259 257 256 259 263 262 261 266 273 271 271 269 261 272 271 273 284 284 279 267 265 271 281 289 291 289
275 269 263 259 257 256 257 257 260 261 259 257 257 256 255 255 260 264 264 264 264 265 271 277 278 275 250 256 273 284 293 300 293 286 274 263 266 271
278 275 270 263 258 257 256 256 258 259 255 254 254 254 253 255 258 260 261 258 261 268 274 281 281 267 262 257 268 279 287 296 303 310 299 291 282 276